(198170) = 2000 WP57 = 2004 TQ90

Discovered at Kitt Peak on 2004-10-05 by Spacewatch.

Orbit

Orbit type: Main Belt

Note: WebGL enabled browser required.

epoch2023-02-25.0
epoch JD2460000.5
perihelion date2021-04-04.59599
perihelion JD2459309.09599
argument of perihelion (°)125.13379
ascending node (°)242.88750
inclination (°)3.13324
eccentricity0.1546811
perihelion distance (AU)2.1858429
Tisserand w.r.t. Jupiter3.4
ΔV w.r.t. Earth (km/sec)9.3
semimajor axis (AU)2.5858205
mean anomaly (°)163.88461
mean daily motion (°/day)0.23703160
aphelion distance (AU)2.986
period (years)4.16
P-vector [x]0.98912811
P-vector [y]0.11075694
P-vector [z]0.09673929
Q-vector [x]-0.13877528
Q-vector [y]0.92065808
Q-vector [z]0.36487000
absolute magnitude16.65
phase slope0.15
uncertainty0
referenceMPO 745323
observations used288
oppositions16
arc length (days)8186
first opposition used2000
last opposition used2023
residual rms (arc-secs)0.81
perturbers coarse indicatorM-v
perturbers precise indicator003Ek
first observation date used2000-11-18.0
last observation date used2023-04-18.0
computer nameMPCLINUX
JD of orbit computation2456731.530863
perihelion JD uncertainty (days)8.0861E-05
argument of perihelion uncertainty (°)1.2261E-04
ascending node uncertainty (°)1.2126E-04
inclination uncertainty (°)4.4374E-06
eccentricity uncertainty 7.0850E-08
perihelion distance uncertainty (AU)1.9052E-07
Minimum Orbit Intersection Distances (in AU)
for orbit epoch: 2460000.5, reference: E2023-HA3
Mercury1.83159
Venus1.46525
Earth1.18505
Mars0.77763
Jupiter2.48095
Saturn6.41606
Uranus15.4842
Neptune27.6033

Observations

296 total observations over interval: 2000 11 18.32876 – 2023 04 18.258292
These data are available for download (format description).

Date (UT) J2000 RA J2000 Dec Magn Location Ref
2000 11 18.32876 03 27 07.77 +19 36 18.0 19.0 R 699 – Lowell Observatory-LONEOS MPS 125727
2000 11 18.34841 03 27 06.63 +19 36 11.6   699 – Lowell Observatory-LONEOS MPS 125727
2000 11 18.36807 03 27 05.51 +19 36 05.2   699 – Lowell Observatory-LONEOS MPS 125727
2000 11 18.38778 03 27 04.34 +19 35 59.3   699 – Lowell Observatory-LONEOS MPS 125727
2000 11 21.31962 03 24 18.41 +19 20 35.4 18.8   704 – Lincoln Laboratory ETS, New Mexico MPS 22897
2000 11 21.33424 03 24 17.59 +19 20 29.9 19.3   704 – Lincoln Laboratory ETS, New Mexico MPS 22897
2000 11 21.34884 03 24 16.69 +19 20 25.2 19.0   704 – Lincoln Laboratory ETS, New Mexico MPS 22897
2004 10 04.34141 01 58 07.02 +15 52 38.4 19.0 R 699 – Lowell Observatory-LONEOS MPS 125727
2004 10 04.36087 01 58 06.00 +15 52 31.9   699 – Lowell Observatory-LONEOS MPS 125727
2004 10 04.38038 01 58 05.13 +15 52 27.1   699 – Lowell Observatory-LONEOS MPS 125727
2004 10 04.39988 01 58 04.25 +15 52 21.8   699 – Lowell Observatory-LONEOS MPS 125727
2004 10 05.24562 01 57 29.31 +15 48 28.5 19.5 V 691 – Steward Observatory, Kitt Peak-Spacewatch MPS 117795
2004 10 05.27392 01 57 28.06 +15 48 20.7 19.5 V 691 – Steward Observatory, Kitt Peak-Spacewatch MPS 117795
2004 10 05.30223 01 57 26.80 +15 48 12.8 19.4 V 691 – Steward Observatory, Kitt Peak-Spacewatch MPS 117795
2004 10 07.17286 01 56 05.86 +15 39 10.9 19.0 R 699 – Lowell Observatory-LONEOS MPS 118549
2004 10 07.19232 01 56 05.09 +15 39 03.0   699 – Lowell Observatory-LONEOS MPS 118549
2004 10 07.21178 01 56 04.09 +15 38 58.6   699 – Lowell Observatory-LONEOS MPS 118549
2004 10 07.23126 01 56 03.18 +15 38 51.8   699 – Lowell Observatory-LONEOS MPS 118549
2004 10 09.24591 01 54 31.52 +15 28 30.6 19.3 V 691 – Steward Observatory, Kitt Peak-Spacewatch MPS 117795
2004 10 09.27777 01 54 29.97 +15 28 20.7 19.3 V 691 – Steward Observatory, Kitt Peak-Spacewatch MPS 117795
2004 10 09.30517 01 54 28.63 +15 28 11.9 19.4 V 691 – Steward Observatory, Kitt Peak-Spacewatch MPS 117795
2004 10 10.25990 01 53 43.84 +15 23 02.6 19.8   704 – Lincoln Laboratory ETS, New Mexico MPS 118549
2004 10 10.27185 01 53 43.30 +15 23 00.2 19.4   704 – Lincoln Laboratory ETS, New Mexico MPS 118549
2004 10 10.28361 01 53 42.75 +15 22 56.9 20.0   704 – Lincoln Laboratory ETS, New Mexico MPS 118549
2004 10 10.29550 01 53 42.15 +15 22 51.7 19.8   704 – Lincoln Laboratory ETS, New Mexico MPS 118549
2004 10 10.30720 01 53 41.56 +15 22 50.0 19.6   704 – Lincoln Laboratory ETS, New Mexico MPS 118549
2004 10 13.23476 01 51 19.98 +15 06 16.2 19.2 V 691 – Steward Observatory, Kitt Peak-Spacewatch MPS 118549
2004 10 13.26169 01 51 18.58 +15 06 06.9 19.3 V 691 – Steward Observatory, Kitt Peak-Spacewatch MPS 118549
2004 10 13.29101 01 51 17.05 +15 05 56.6 19.2 V 691 – Steward Observatory, Kitt Peak-Spacewatch MPS 118549
2004 10 21.27514 01 44 31.29 +14 16 13.4 19.5   704 – Lincoln Laboratory ETS, New Mexico MPS 118549
2004 10 21.28699 01 44 30.61 +14 16 08.9 20.4   704 – Lincoln Laboratory ETS, New Mexico MPS 118549
2004 10 21.29873 01 44 30.11 +14 16 03.0 19.7   704 – Lincoln Laboratory ETS, New Mexico MPS 118549
2004 10 21.31051 01 44 29.49 +14 15 58.5 19.7   704 – Lincoln Laboratory ETS, New Mexico MPS 118549
2004 11 03.21428 01 34 07.10 +12 51 00.9 19.1   644 – Palomar Mountain/NEAT MPS 118549
2004 11 03.23468 01 34 06.17 +12 50 52.9 19.1   644 – Palomar Mountain/NEAT MPS 118549
2004 11 03.25662 01 34 05.18 +12 50 44.6 19.1   644 – Palomar Mountain/NEAT MPS 118549
2004 11 04.30263 01 33 20.37 +12 44 05.4 18.6 R 703 – Catalina Sky Survey MPS 118549
2004 11 04.31065 01 33 20.03 +12 44 01.9 18.7 R 703 – Catalina Sky Survey MPS 118549
2004 11 04.31881 01 33 19.69 +12 43 58.1 19.2 R 703 – Catalina Sky Survey MPS 118549
2004 11 04.32686 01 33 19.36 +12 43 55.7 18.5 R 703 – Catalina Sky Survey MPS 118549
2006 01 09.47361 10 31 28.95 +04 46 08.9 21.1 V G96 – Mt. Lemmon Survey MPS 158987
2006 01 09.48060 10 31 28.84 +04 46 09.0 21.0 V G96 – Mt. Lemmon Survey MPS 158987
2006 01 09.48751 10 31 28.70 +04 46 08.6 21.9 V G96 – Mt. Lemmon Survey MPS 158987
2006 01 09.49444 10 31 28.59 +04 46 09.1 21.3 V G96 – Mt. Lemmon Survey MPS 158987
2006 01 21.45422 10 26 16.60 +04 59 58.2   291 – LPL/Spacewatch II MPS 160446
2006 01 21.45801 10 26 16.47 +04 59 58.7   291 – LPL/Spacewatch II MPS 160446
2006 01 21.46227 10 26 16.33 +04 59 59.3   291 – LPL/Spacewatch II MPS 160446
2006 01 22.35053 10 25 45.56 +05 01 53.2 21.0 V 691 – Steward Observatory, Kitt Peak-Spacewatch MPS 160446
2006 01 22.36781 10 25 44.90 +05 01 55.6 20.9 V 691 – Steward Observatory, Kitt Peak-Spacewatch MPS 160446
2006 01 22.38509 10 25 44.24 +05 01 57.7 20.8 V 691 – Steward Observatory, Kitt Peak-Spacewatch MPS 160446
2006 01 26.33029 10 23 14.56 +05 11 50.9 20.7 V 691 – Steward Observatory, Kitt Peak-Spacewatch MPS 160446
2006 01 26.34759 10 23 13.81 +05 11 53.4 20.7 V 691 – Steward Observatory, Kitt Peak-Spacewatch MPS 160446
2006 01 26.36488 10 23 13.09 +05 11 56.9 20.8 V 691 – Steward Observatory, Kitt Peak-Spacewatch MPS 160446
2006 01 30.35388 10 20 23.19 +05 24 11.2 20.9 V 691 – Steward Observatory, Kitt Peak-Spacewatch MPS 161807
2006 01 30.37409 10 20 22.22 +05 24 15.0 20.6 V 691 – Steward Observatory, Kitt Peak-Spacewatch MPS 161807
2006 01 30.39144 10 20 21.48 +05 24 18.9 20.6 V 691 – Steward Observatory, Kitt Peak-Spacewatch MPS 161807
2006 02 02.28214 10 18 08.35 +05 34 29.2 20.7 V 691 – Steward Observatory, Kitt Peak-Spacewatch MPS 161807
2006 02 02.29953 10 18 07.49 +05 34 32.9 20.8 V 691 – Steward Observatory, Kitt Peak-Spacewatch MPS 161807
2006 02 02.31692 10 18 06.62 +05 34 37.0 20.6 V 691 – Steward Observatory, Kitt Peak-Spacewatch MPS 161807
2006 02 06.29563 10 14 51.64 +05 50 12.1   691 – Steward Observatory, Kitt Peak-Spacewatch MPS 162798
2006 02 06.31302 10 14 50.74 +05 50 16.2   691 – Steward Observatory, Kitt Peak-Spacewatch MPS 162798
2006 02 06.33035 10 14 49.82 +05 50 21.3   691 – Steward Observatory, Kitt Peak-Spacewatch MPS 162798
2007 05 11.25017 15 15 09.21 -19 07 29.9 20.2 V 691 – Steward Observatory, Kitt Peak-Spacewatch MPS 208927
2007 05 11.26780 15 15 08.15 -19 07 26.8 20.3 V 691 – Steward Observatory, Kitt Peak-Spacewatch MPS 208927
2007 05 11.28543 15 15 07.12 -19 07 21.5 20.7 V 691 – Steward Observatory, Kitt Peak-Spacewatch MPS 208927
2008 08 24.35093 00 15 45.52 +07 13 38.6   691 – Steward Observatory, Kitt Peak-Spacewatch MPS 254479
2008 08 24.36848 00 15 45.10 +07 13 37.3   691 – Steward Observatory, Kitt Peak-Spacewatch MPS 254479
2008 08 24.38604 00 15 44.70 +07 13 36.0   691 – Steward Observatory, Kitt Peak-Spacewatch MPS 254479
2008 09 04.25369 00 10 31.08 +06 48 05.0 19.5   704 – Lincoln Laboratory ETS, New Mexico MPS 255219
2008 09 04.26699 00 10 30.58 +06 48 02.0 19.9   704 – Lincoln Laboratory ETS, New Mexico MPS 255219
2008 09 04.28026 00 10 30.03 +06 47 59.7 19.5   704 – Lincoln Laboratory ETS, New Mexico MPS 255219
2008 09 04.29357 00 10 29.49 +06 47 56.4 19.6   704 – Lincoln Laboratory ETS, New Mexico MPS 255219
2008 09 04.30677 00 10 29.05 +06 47 53.5 19.7   704 – Lincoln Laboratory ETS, New Mexico MPS 255219
2008 09 21.30278 23 58 02.24 +05 23 57.8 18.7 V G96 – Mt. Lemmon Survey MPS 256680
2008 09 21.31057 23 58 01.81 +05 23 54.9 18.7 V G96 – Mt. Lemmon Survey MPS 256680
2008 09 21.31840 23 58 01.41 +05 23 52.1 18.7 V G96 – Mt. Lemmon Survey MPS 256680
2008 09 21.32611 23 58 01.05 +05 23 49.1 18.8 V G96 – Mt. Lemmon Survey MPS 256680
2008 09 21.35910 23 57 59.43 +05 23 38.0 19.0 V 703 – Catalina Sky Survey MPS 256680
2008 09 21.36559 23 57 59.11 +05 23 36.6 19.0 V 703 – Catalina Sky Survey MPS 256680
2008 09 21.37209 23 57 58.64 +05 23 35.0 18.8 V 703 – Catalina Sky Survey MPS 256680
2008 09 21.37856 23 57 58.35 +05 23 31.1 18.8 V 703 – Catalina Sky Survey MPS 256680
2008 09 22.25895 23 57 16.25 +05 18 06.3 19.7 R 683 – Goodricke-Pigott Observatory, Tucson MPS 256680
2008 09 22.27235 23 57 15.51 +05 18 02.4 19.1 R 683 – Goodricke-Pigott Observatory, Tucson MPS 256680
2008 09 22.28576 23 57 14.89 +05 17 56.9 20.2 R 683 – Goodricke-Pigott Observatory, Tucson MPS 256680
2008 09 23.25567 23 56 28.11 +05 11 55.3 19.0 R 683 – Goodricke-Pigott Observatory, Tucson MPS 256680
